Dean International
Flight School

Career Spotlight

Mika

Mika

Congratulations to Mika from Khazakstan. She recently sent us this photo of her flying an Airbus airliner.

More...
Mika's Success Story
close

Congratulations to Mika from Khazakstan. She recently sent us this photo of her flying an Airbus airliner.

Mario

Mario

My dreams could not have been realized if I wouldn't have been part of the Dean International family.

More...
Mario's Success Story
close

"My dreams could not have been realized if I wouldn't have been part of the Dean International family. Thank you Robert, thanks to all my co-workers, and thanks to all of my students!"

Fernando

Fernando

I am now working as a First Officer at TACA and am enjoying every moment of it.

More...
Fernando's Success Story
close

"Will never forget my time of flight training at Dean International. I am now working as a First Officer at TACA and am enjoying every moment of it."

Alvaro

Alvaro

Because of the flight time I was able to built while instructing, I got the experience needed to apply to an airline in Colombia.

More...
Alvaro's Success Story
close

Dean alumnus Alvaro Londoño currently flies with Tampa Cargo. He says of his experience at Dean: "I want to take this opportunity to thank you for giving me the chance to build my experience and expand my knowledge in Dean International. Because of the flight time I was able to built flight instructing, I got the experience needed to apply to an airline in Colombia."

Ralph

Ralph

Every Aruban student of Dean International has made it into Tiara Air Aruba, that is very nice.

More...
Ralph's Success Story
close

"Next to me is my Co-Pilot, Elison. This picture was taken on our first flight together, which was almost exactly 5 years after I finished at Dean International. [...] Every Aruban student of Dean International has made it into Tiara Air Aruba. [...] The future looks bright here in Aruba."

Rohaan

Rohaan

The [..] staff will all work diligently to help you finish your certificates as safely and efficiently as possible.

More...
Rohaan's Success Story
close

After receiving very hard times from other flight schools [...], I came to Dean International where Robert Dean personally sat down with me and gave me a financial and chronological look into how much remained to finish my private pilot certificate. Through his hard efforts as an instructor and mentor, I was able to finish my private pilot certificate within one week.

Welcome to Dean International

In over two decades, Dean International has educated over 7,000 pilots from all over the world, including over 1,000 students from India alone. By offering a great training experience, a friendly service staff, an ample variety of aircraft, and by improving constantly, we have become one of the largest, most prestigious FAA 141-approved flight schools in North America. Located in Miami, Florida, USA, our flight school offers an ideal location for year-round, "learn to fly" weather, flight training. Dean International is not only well-equipped to provide services to professional trainees but also caters to General Aviation renters. Visit or contact our headquarters at Kendall-Tamiami Executive Airport located in Miami, FL today to learn more about us, or simply read more about our programs if you are an international student interested in joining our school.

Local Airport Information
TAF FOR KTMB (Issued: Fri, July 29th 2016 3:36 AM UTC)
TAF
      AMD KTMB 290233Z 2903/2924 12005KT P6SM FEW030 SCT250
      FM291400 13007KT P6SM SCT030
      FM291800 13008KT P6SM VCSH SCT035
     
METAR FOR KTMB (Issued: Fri, July 29th 2016 2:53 AM UTC):
KTMB 290253Z 13005KT 10SM CLR 29/25 A3006 RMK AO2 SLP177 T02890250 53015

This weather information is provided by the National Weather Service.
It is automatically refreshed every three minutes.
TAF FOR KHST (Issued: Fri, July 29th 2016 2:45 PM UTC)
TAF
      AMD KHST 281440Z 2814/2914 08009KT 9999 SCT025 QNH3000INS
      TEMPO 2815/2817 12015G25KT 8000 -TSRA BKN025CB
      BECMG 2905/2906 12006KT 6000 BR BKN020 QNH3002INS
      TEMPO 2912/2914 12015G30KT 3200 TSRA OVC015CB TX32/2817Z TN26/2908Z
      AMD 281440
     
METAR FOR KHST (Issued: Fri, July 29th 2016 2:58 AM UTC):
KHST 290258Z AUTO 10003KT 10SM FEW024 SCT031 28/25 A3005 RMK AO2 SLP179 T02840254 52012

This weather information is provided by the National Weather Service.
It is automatically refreshed every three minutes.
TAF FOR KOPF (Issued: Fri, July 29th 2016 3:36 AM UTC)
TAF
      AMD KOPF 290233Z 2903/2924 13005KT P6SM FEW030 SCT200
      FM291400 13008KT P6SM SCT030
      FM291800 14008KT P6SM VCSH SCT035
     
METAR FOR KOPF (Issued: Fri, July 29th 2016 2:53 AM UTC):
KOPF 290253Z AUTO 13007KT 10SM CLR 29/24 A3007 RMK AO2 SLP182 T02890244 53014

This weather information is provided by the National Weather Service.
It is automatically refreshed every three minutes.
TAF FOR KMIA (Issued: Fri, July 29th 2016 3:39 AM UTC)
TAF
      AMD KMIA 290233Z 2903/2924 12005KT P6SM FEW030 SCT250
      FM291400 13008KT P6SM SCT030
      FM291800 13009KT P6SM VCSH SCT035
     
METAR FOR KMIA (Issued: Fri, July 29th 2016 2:53 AM UTC):
KMIA 290253Z 13007KT 10SM FEW020 FEW029 SCT250 29/25 A3006 RMK AO2 SLP180 T02890250 53015

This weather information is provided by the National Weather Service.
It is automatically refreshed every three minutes.
Design by Ariel Llizo
© Dean International Inc. 2012